Starlink 34145

operational
NORAD ID: 64110 Int'l Des: 2025-110 Owner: SPXS Country: US Constellation: starlink
LEOCIRCULAR

关于 Starlink 34145

正在加载描述...

实时位置

正在加载3D地球...

即将过境

高度历史

Altitude vs Time

uPlot chart will show altitude changes over time

两行轨道根数

1 64110U 25110Q 25353.43828719 .00013664 00000-0 47252-3 0 9994
2 64110 53.1588 39.6653 0001454 94.1080 266.0087 15.30207221 33594
Epoch: Dec 19, 2025 • Age: 23 hours

当前状态

高度 484.6 km
速度 7.62 km/s
星下点 -29.61°S, 9.88°E
发射日期 May 23, 2025
运行时间 0.5 years
类型 internet

技术详情

分类 Payload
质量 575.00 kg
干质量 530.00 kg
总质量 575.00 kg
长度 0.30 m
直径 4.10 m
跨度 29.00 m
形状 Box + pan
制造商 SPXS
平台类型 Starlink V2MO
阶段状态 In Orbit
所有者/国家 SPXS/US

大型星座

Loading constellations...